This is the latest recevied weather packets stored in our database for station/object K7DC. If no packets are shown the sender has not sent any weather packets the latest 10 day(s).
| Time | Temp. | Humidity | Pressure | Rain* | Wind** | Luminosity | Snow |
|---|---|---|---|---|---|---|---|
| 1788110993 | 32.22° C | 40% | 1017.7 hPa | 0 mm | - | 796 W/m² | - |
| 1788110689 | 32.22° C | 42% | 1017.4 hPa | 0 mm | - | 817 W/m² | - |
| 1788110390 | 32.22° C | 41% | 1017.4 hPa | 0 mm | - | 861 W/m² | - |
| 1788110086 | 32.22° C | 41% | 1017.6 hPa | 0 mm | - | 739 W/m² | - |
| 1788109786 | 32.78° C | 39% | 1017.4 hPa | 0 mm | - | 668 W/m² | - |
| 1788109480 | 32.78° C | 39% | 1017.6 hPa | 0 mm | - | 602 W/m² | - |
| 1788109178 | 32.78° C | 39% | 1017.7 hPa | 0 mm | - | 718 W/m² | - |
| 1788108875 | 33.33° C | 40% | 1017.6 hPa | 0 mm | - | 722 W/m² | - |
| 1788108571 | 33.33° C | 38% | 1017.7 hPa | 0 mm | - | 678 W/m² | - |
| 1788108266 | 33.89° C | 38% | 1017.6 hPa | 0 mm | - | 674 W/m² | - |
| 1788107968 | 32.78° C | 39% | 1017.6 hPa | 0 mm | - | 659 W/m² | - |
| 1788107659 | 32.22° C | 40% | 1017.4 hPa | 0 mm | - | 641 W/m² | - |
| 1788107358 | 31.67° C | 42% | 1017.2 hPa | 0 mm | - | 609 W/m² | - |
| 1788107055 | 31.67° C | 42% | 1017.7 hPa | 0 mm | - | 629 W/m² | - |
| 1788106754 | 31.11° C | 43% | 1017.7 hPa | 0 mm | - | 611 W/m² | - |
| 1788106454 | 30.56° C | 42% | 1017.8 hPa | 0 mm | - | 560 W/m² | - |
| 1788106149 | 30.56° C | 45% | 1017.9 hPa | 0 mm | - | 448 W/m² | - |
| 1788105845 | 30° C | 46% | 1017.8 hPa | 0 mm | - | 298 W/m² | - |
| 1788105540 | 30° C | 45% | 1017.8 hPa | 0 mm | - | 400 W/m² | - |
| 1788105236 | 30° C | 46% | 1018.1 hPa | 0 mm | - | 390 W/m² | - |
| 1788104931 | 29.44° C | 47% | 1018 hPa | 0 mm | - | 324 W/m² | - |
| 1788104627 | 28.89° C | 49% | 1017.8 hPa | 0 mm | - | 333 W/m² | - |
| 1788104324 | 29.44° C | 49% | 1017.8 hPa | 0 mm | - | 299 W/m² | - |
| 1788104019 | 28.89° C | 48% | 1017.9 hPa | 0 mm | - | 400 W/m² | - |
| 1788103717 | 28.33° C | 50% | 1017.8 hPa | 0 mm | - | 257 W/m² | - |
* Rain latest hour (hover to see other rain measurements)
** Current wind speed in m/s (hover to see current wind gust speed)